Japanese version Home page |
Updated on November 4, 2020 |
Profile |
Orbital ElementsEpoch 1997 Feb. 1.0 TT = JDT 2450480.5 T 1997 Feb. 12.68718 TT MPCW q 3.8320344 (2000.0) P Q n 0.05950573 Peri. 162.76887 -0.94340162 +0.32219719 a 6.4977578 Node 36.33022 -0.31777831 -0.81031004 e 0.4102528 Incl. 7.62676 -0.09492275 -0.48947585 P 16.6 From 1136 observations 1997 June 1-2015 June 10, mean residual 0".5.
|
Magnitudes Graphm1 = 3.3 + 5 log d + 17.5 log r
|
The orbital elements are published on M.P.E.C. 2015-M77.
|